FW8705 Weather Reports


Display with metric or nautical units.
time (UTC)temp
F
wind
direction
speed
MPH
gust
MPH
rain 1hr
in
rain 24hr
in
rain mn
in
humidity
%
barometer
mb
20260508023058 50 0 0.0 8.0 0.00 0.58 0.44 96 1015.3
20260508021555 50 0 0.0 2.0 0.00 0.58 0.44 96 1015.3
20260508020100 50 0 0.0 5.0 0.00 0.58 0.44 96 1015.0
20260508014556 50 0 0.0 3.0 0.00 0.58 0.44 96 1015.0
20260508013052 50 0 0.0 4.0 0.01 0.58 0.44 96 1015.0
20260508011555 50 0 0.0 5.0 0.03 0.58 0.44 96 1015.0
20260508010054 50 345 0.0 3.0 0.11 0.58 0.44 96 1015.1
20260508004558 51 0 0.0 5.0 0.37 0.57 0.44 96 1015.1
20260508003106 51 0 0.0 5.0 0.41 0.56 0.43 96 1015.2
20260508001558 52 0 0.0 3.0 0.40 0.54 0.40 97 1015.3
20260508000053 52 0 0.0 6.0 0.33 0.47 0.33 97 1015.2
20260507234557 52 0 0.0 5.0 0.05 0.19 0.06 97 1015.4
20260507233055 52 5 0.0 6.0 0.00 0.14 0.01 96 1015.4
20260507231555 53 0 0.0 3.0 0.00 0.14 0.00 96 1015.3
20260507230055 53 0 0.0 4.0 0.00 0.14 0.00 96 1015.2
20260507224615 53 0 0.0 3.0 0.00 0.14 0.00 96 1015.0
20260507223100 54 0 0.0 1.0 0.00 0.14 0.00 96 1015.0
20260507221554 54 340 0.0 3.0 0.00 0.13 0.00 96 1014.9
20260507220057 54 0 0.0 5.0 0.00 0.13 0.00 96 1015.0
20260507214555 54 0 0.0 4.0 0.00 0.13 0.13 96 1014.7
20260507213053 55 0 0.0 7.0 0.00 0.13 0.13 96 1014.7
20260507211623 55 352 0.0 8.0 0.00 0.13 0.13 96 1014.4
20260507210054 55 0 0.0 1.0 0.00 0.12 0.12 96 1014.1
20260507204604 55 0 0.0 2.0 0.00 0.12 0.12 96 1014.0
20260507203106 55 0 0.0 0.0 0.00 0.12 0.12 96 1014.1
20260507201611 55 0 0.0 8.0 0.00 0.12 0.12 95 1014.1
20260507200103 55 0 0.0 5.0 0.00 0.11 0.11 95 1014.2
20260507194601 56 0 0.0 5.0 0.01 0.11 0.11 94 1014.1
20260507193058 56 0 0.0 1.0 0.11 0.11 0.11 93 1013.6
20260507191603 57 0 0.0 4.0 0.11 0.11 0.11 93 1013.4
20260507190059 57 0 0.0 4.0 0.11 0.11 0.11 91 1013.3
20260507184556 58 9 1.0 5.0 0.10 0.10 0.10 88 1013.4
20260507183058 60 0 0.0 8.0 0.00 0.00 0.00 79 1013.3
20260507181554 61 0 0.0 8.0 0.00 0.00 0.00 79 1013.0
20260507180057 62 324 4.0 13.0 0.00 0.00 0.00 74 1012.2
20260507174557 62 324 1.0 6.0 0.00 0.00 0.00 69 1012.1
20260507173102 63 340 0.0 5.0 0.00 0.00 0.00 66 1011.6
20260507171559 64 0 0.0 9.0 0.00 0.00 0.00 66 1011.5
20260507170059 64 0 1.0 9.0 0.00 0.00 0.00 62 1011.3
20260507164555 66 173 1.0 9.0 0.00 0.00 0.00 61 1011.1
20260507163056 66 167 1.0 9.0 0.00 0.00 0.00 63 1010.7
20260507161601 67 170 1.0 7.0 0.00 0.00 0.00 62 1010.5
20260507160108 67 165 2.0 9.0 0.00 0.00 0.00 61 1010.5
20260507154600 67 0 3.0 10.0 0.00 0.00 0.00 61 1010.6
20260507153101 68 171 5.0 10.0 0.00 0.00 0.00 60 1010.7
20260507151553 68 0 0.0 9.0 0.00 0.00 0.00 62 1010.6
20260507150101 68 197 1.0 10.0 0.00 0.00 0.00 62 1010.6
20260507144603 69 173 2.0 11.0 0.00 0.00 0.00 60 1010.4
20260507143105 69 173 2.0 9.0 0.00 0.00 0.00 61 1010.4
20260507141558 69 172 4.0 13.0 0.00 0.00 0.00 60 1010.4
20260507140110 69 0 1.0 6.0 0.00 0.00 0.00 59 1010.4
20260507134600 69 165 2.0 9.0 0.00 0.00 0.00 59 1010.5
20260507133110 68 169 2.0 8.0 0.00 0.00 0.00 60 1010.6
20260507131604 68 168 3.0 10.0 0.00 0.00 0.00 60 1010.7
20260507130107 68 159 3.0 12.0 0.00 0.00 0.00 60 1010.7
20260507124600 68 179 3.0 9.0 0.00 0.00 0.00 60 1010.6
20260507123100 68 0 2.0 6.0 0.00 0.00 0.00 62 1010.6
20260507121605 68 171 2.0 9.0 0.00 0.00 0.00 62 1010.8
20260507120058 68 213 2.0 7.0 0.00 0.00 0.00 63 1010.8
20260507114556 68 0 0.0 5.0 0.00 0.00 0.00 64 1010.7
20260507113059 68 178 3.0 11.0 0.00 0.00 0.00 64 1010.6
20260507111601 68 0 2.0 11.0 0.00 0.00 0.00 64 1010.6
20260507110106 68 0 0.0 4.0 0.00 0.00 0.00 68 1010.6
20260507104556 66 0 0.0 7.0 0.00 0.00 0.00 71 1010.7
20260507103054 67 186 3.0 9.0 0.00 0.00 0.00 67 1010.7
20260507101606 67 167 1.0 8.0 0.00 0.00 0.00 66 1010.4
20260507094602 67 0 0.0 8.0 0.00 0.00 0.00 69 1010.4
20260507093055 66 193 1.0 8.0 0.00 0.00 0.00 70 1010.4
20260507091604 65 178 0.0 10.0 0.00 0.00 0.00 71 1010.4
20260507090110 65 0 1.0 6.0 0.00 0.00 0.00 71 1010.3
20260507084555 64 164 2.0 10.0 0.00 0.00 0.00 72 1010.1
20260507083101 64 161 2.0 9.0 0.00 0.00 0.00 73 1009.9
20260507081601 64 0 1.0 9.0 0.00 0.00 0.00 74 1009.9
20260507080059 63 0 2.0 9.0 0.00 0.00 0.00 76 1009.9
20260507074600 62 178 1.0 10.0 0.00 0.00 0.00 77 1009.8
20260507073101 62 146 3.0 11.0 0.00 0.00 0.00 78 1009.7
20260507071553 61 185 3.0 10.0 0.00 0.00 0.00 79 1009.5
20260507070137 61 189 4.0 11.0 0.00 0.00 0.00 80 1009.3
20260507064553 61 0 0.0 3.0 0.00 0.00 0.00 82 1009.1
20260507063101 60 188 0.0 8.0 0.00 0.00 0.00 83 1009.1
20260507061556 59 192 2.0 9.0 0.00 0.00 0.00 83 1009.1
20260507060100 59 197 3.0 9.0 0.00 0.00 0.00 83 1009.1
20260507054608 59 187 1.0 7.0 0.00 0.00 0.00 84 1008.8
20260507053054 58 0 0.0 4.0 0.00 0.00 0.00 86 1008.5
20260507051552 57 0 0.0 1.0 0.00 0.00 0.00 89 1008.3
20260507050056 57 0 0.0 1.0 0.00 0.00 0.00 90 1008.3
20260507044559 56 0 0.0 1.0 0.00 0.00 0.00 90 1008.2
20260507043052 56 0 0.0 2.0 0.00 0.00 0.00 90 1007.9
20260507041552 56 0 0.0 1.0 0.00 0.00 0.00 90 1007.8
20260507040053 56 0 0.0 0.0 0.00 0.00 0.00 89 1007.4
20260507034553 56 0 0.0 0.0 0.00 0.00 0.00 89 1007.4
20260507033052 56 0 0.0 2.0 0.00 0.00 0.00 88 1007.3
20260507031554 57 0 0.0 2.0 0.00 0.00 0.00 88 1007.4
20260507030106 57 0 0.0 1.0 0.00 0.00 0.00 86 1007.1
20260507024605 56 0 0.0 0.0 0.00 0.00 0.00 85 1007.0